When you browse on this site, cookies collect data to enhance your experience and personalize the content and advertising you see.
Visit our Privacy Policy to learn more. By continuing to use the site, you agree to this use of cookies and data.
  • In Österreich
  • Länderverzeichnis
  • Für 7 Tage
  • Wassertemperatur
  • Satellitenkarten
  • Wetterkarte
  • News
  • Widgets
  • user-avatar
    Anmelden

    Stündliche Wetter Novaya Sloboda

    Heute, 20 Februar, Mittwoch

    Zeit Temperatur Niederschläge Wind Luftdruck Luftfeuchtigkeit
    00:00 -2°C° 0 mm 5 m/S 738 mmHg 89%
    01:00 -1°C° 0 mm 5 m/S 737 mmHg 89%
    02:00 -1°C° 0 mm 5 m/S 736 mmHg 91%
    03:00 0°C° 0.1 mm 5 m/S 736 mmHg 92%
    04:00 0°C° 0.1 mm 5 m/S 735 mmHg 92%
    05:00 0°C° 0.1 mm 5 m/S 734 mmHg 93%
    06:00 0°C° 0.1 mm 5 m/S 734 mmHg 93%
    07:00 0°C° 0.1 mm 5 m/S 734 mmHg 93%
    08:00 0°C° 0.1 mm 5 m/S 734 mmHg 93%
    09:00 0°C° 0 mm 5 m/S 734 mmHg 92%
    10:00 0°C° 0 mm 5 m/S 734 mmHg 92%
    11:00 0°C° 0 mm 5 m/S 734 mmHg 91%
    12:00 +1°C° 0 mm 5 m/S 734 mmHg 90%
    13:00 +1°C° 0 mm 5 m/S 734 mmHg 89%
    14:00 +1°C° 0 mm 5 m/S 733 mmHg 88%
    15:00 0°C° 0 mm 5 m/S 733 mmHg 88%
    16:00 0°C° 0 mm 5 m/S 733 mmHg 89%
    17:00 0°C° 0 mm 5 m/S 733 mmHg 89%
    18:00 0°C° 0.1 mm 5 m/S 732 mmHg 89%
    19:00 0°C° 0.1 mm 5 m/S 732 mmHg 89%
    20:00 0°C° 0.1 mm 5 m/S 731 mmHg 89%
    21:00 -1°C° 0.2 mm 4 m/S 731 mmHg 90%
    22:00 -1°C° 0.2 mm 4 m/S 731 mmHg 90%
    23:00 -1°C° 0.2 mm 4 m/S 731 mmHg 90%

    Morgen, 21 Februar, Donnerstag

    Zeit Temperatur Niederschläge Wind Luftdruck Luftfeuchtigkeit
    00:00 -2°C° 0.4 mm 5 m/S 731 mmHg 90%
    01:00 -2°C° 0.4 mm 5 m/S 732 mmHg 89%
    02:00 -4°C° 0.4 mm 6 m/S 732 mmHg 88%
    03:00 -5°C° 0.4 mm 5 m/S 732 mmHg 88%
    04:00 -6°C° 0.4 mm 5 m/S 732 mmHg 88%
    05:00 -7°C° 0.4 mm 5 m/S 732 mmHg 88%
    06:00 -7°C° 0.3 mm 5 m/S 733 mmHg 88%
    07:00 -7°C° 0.3 mm 5 m/S 733 mmHg 88%
    08:00 -7°C° 0.3 mm 5 m/S 734 mmHg 87%
    09:00 -7°C° 0.5 mm 5 m/S 735 mmHg 88%
    10:00 -6°C° 0.5 mm 5 m/S 735 mmHg 88%
    11:00 -6°C° 0.5 mm 6 m/S 736 mmHg 88%
    12:00 -6°C° 0.2 mm 6 m/S 737 mmHg 86%
    13:00 -8°C° 0.2 mm 7 m/S 738 mmHg 83%
    14:00 -8°C° 0.2 mm 7 m/S 739 mmHg 81%
    15:00 -9°C° 0.1 mm 7 m/S 740 mmHg 81%
    16:00 -10°C° 0.1 mm 6 m/S 741 mmHg 80%
    17:00 -10°C° 0.1 mm 6 m/S 742 mmHg 80%
    18:00 -11°C° 0.1 mm 6 m/S 743 mmHg 80%
    19:00 -12°C° 0.1 mm 6 m/S 744 mmHg 79%
    20:00 -12°C° 0.1 mm 6 m/S 745 mmHg 78%
    21:00 -14°C° 0 mm 6 m/S 745 mmHg 78%
    22:00 -14°C° 0 mm 6 m/S 745 mmHg 77%
    23:00 -15°C° 0 mm 6 m/S 746 mmHg 77%

    übermorgen, 22 Februar, Freitag

    Zeit Temperatur Niederschläge Wind Luftdruck Luftfeuchtigkeit
    00:00 -15°C° 0 mm 6 m/S 746 mmHg 77%
    01:00 -15°C° 0 mm 6 m/S 747 mmHg 77%
    02:00 -15°C° 0 mm 6 m/S 747 mmHg 77%
    03:00 -16°C° 0 mm 6 m/S 748 mmHg 77%
    04:00 -16°C° 0 mm 6 m/S 748 mmHg 77%
    05:00 -16°C° 0 mm 6 m/S 748 mmHg 77%
    06:00 -17°C° 0 mm 7 m/S 749 mmHg 76%
    07:00 -17°C° 0 mm 7 m/S 749 mmHg 76%
    08:00 -17°C° 0 mm 7 m/S 750 mmHg 75%
    09:00 -15°C° 0.1 mm 7 m/S 750 mmHg 74%
    10:00 -16°C° 0.1 mm 8 m/S 750 mmHg 73%
    11:00 -15°C° 0.1 mm 8 m/S 750 mmHg 73%
    12:00 -15°C° 0.1 mm 8 m/S 751 mmHg 72%
    13:00 -15°C° 0.1 mm 8 m/S 751 mmHg 72%
    14:00 -13°C° 0.1 mm 8 m/S 751 mmHg 72%
    15:00 -13°C° 0.1 mm 7 m/S 752 mmHg 72%
    16:00 -14°C° 0.1 mm 7 m/S 753 mmHg 73%
    17:00 -14°C° 0.1 mm 6 m/S 753 mmHg 74%
    18:00 -14°C° 0 mm 6 m/S 754 mmHg 74%
    19:00 -15°C° 0 mm 6 m/S 754 mmHg 74%
    20:00 -15°C° 0 mm 6 m/S 755 mmHg 74%
    21:00 -16°C° 0 mm 6 m/S 755 mmHg 76%
    22:00 -15°C° 0 mm 5 m/S 756 mmHg 77%
    23:00 -17°C° 0 mm 5 m/S 757 mmHg 79%

    23 Februar, Samstag

    Zeit Temperatur Niederschläge Wind Luftdruck Luftfeuchtigkeit
    00:00 -17°C° 0 mm 5 m/S 757 mmHg 80%
    01:00 -17°C° 0 mm 5 m/S 758 mmHg 82%
    02:00 -16°C° 0 mm 4 m/S 758 mmHg 83%
    03:00 -17°C° 0 mm 4 m/S 758 mmHg 84%
    04:00 -17°C° 0 mm 4 m/S 759 mmHg 85%
    05:00 -17°C° 0 mm 4 m/S 759 mmHg 86%
    06:00 -17°C° 0 mm 4 m/S 759 mmHg 86%
    07:00 -17°C° 0 mm 4 m/S 760 mmHg 86%
    08:00 -17°C° 0 mm 4 m/S 760 mmHg 87%
    09:00 -16°C° 0 mm 4 m/S 760 mmHg 84%
    10:00 -16°C° 0 mm 4 m/S 760 mmHg 81%
    11:00 -14°C° 0 mm 3 m/S 761 mmHg 79%
    12:00 -13°C° 0 mm 3 m/S 760 mmHg 77%
    13:00 -12°C° 0 mm 3 m/S 760 mmHg 76%
    14:00 -9°C° 0 mm 2 m/S 760 mmHg 75%
    15:00 -10°C° 0 mm 2 m/S 760 mmHg 78%
    16:00 -10°C° 0 mm 2 m/S 760 mmHg 82%
    17:00 -10°C° 0 mm 1 m/S 760 mmHg 86%
    18:00 -12°C° 0 mm 2 m/S 759 mmHg 86%
    19:00 -12°C° 0 mm 2 m/S 759 mmHg 86%
    20:00 -10°C° 0 mm 2 m/S 759 mmHg 86%
    21:00 -10°C° 0 mm 2 m/S 759 mmHg 87%
    22:00 -10°C° 0 mm 2 m/S 758 mmHg 87%
    23:00 -10°C° 0 mm 2 m/S 758 mmHg 87%

    24 Februar, Sonntag

    Zeit Temperatur Niederschläge Wind Luftdruck Luftfeuchtigkeit
    00:00 -10°C° 0.1 mm 2 m/S 758 mmHg 89%
    01:00 -9°C° 0.1 mm 2 m/S 758 mmHg 90%
    02:00 -9°C° 0.1 mm 2 m/S 758 mmHg 91%
    03:00 -9°C° 0.1 mm 2 m/S 757 mmHg 92%
    04:00 -9°C° 0.1 mm 2 m/S 757 mmHg 93%
    05:00 -8°C° 0.1 mm 2 m/S 757 mmHg 93%
    06:00 -8°C° 0 mm 2 m/S 757 mmHg 93%
    07:00 -8°C° 0 mm 2 m/S 757 mmHg 93%
    08:00 -7°C° 0 mm 2 m/S 757 mmHg 93%
    09:00 -6°C° 0 mm 2 m/S 758 mmHg 92%
    10:00 -3°C° 0 mm 1 m/S 758 mmHg 90%
    11:00 -2°C° 0 mm 1 m/S 758 mmHg 89%
    12:00 -2°C° 0 mm 1 m/S 758 mmHg 89%
    13:00 -1°C° 0 mm 1 m/S 758 mmHg 89%
    14:00 -1°C° 0 mm 1 m/S 758 mmHg 89%
    15:00 -1°C° 0 mm 1 m/S 758 mmHg 91%
    16:00 -1°C° 0 mm 1 m/S 758 mmHg 93%
    17:00 -1°C° 0 mm 1 m/S 758 mmHg 95%
    18:00 -2°C° 0 mm 1 m/S 758 mmHg 96%
    19:00 -2°C° 0 mm 1 m/S 758 mmHg 96%
    20:00 -3°C° 0 mm 1 m/S 758 mmHg 96%
    21:00 -3°C° 0 mm 1 m/S 758 mmHg 96%
    22:00 -3°C° 0 mm 1 m/S 758 mmHg 96%
    23:00 -5°C° 0 mm 2 m/S 758 mmHg 96%

    25 Februar, Montag

    Zeit Temperatur Niederschläge Wind Luftdruck Luftfeuchtigkeit
    00:00 -5°C° 0 mm 2 m/S 757 mmHg 95%
    01:00 -6°C° 0 mm 2 m/S 757 mmHg 95%
    02:00 -6°C° 0 mm 2 m/S 756 mmHg 95%
    03:00 -6°C° 0 mm 3 m/S 756 mmHg 94%
    04:00 -6°C° 0 mm 3 m/S 755 mmHg 94%
    05:00 -5°C° 0 mm 4 m/S 754 mmHg 93%
    06:00 -5°C° 0 mm 4 m/S 754 mmHg 92%
    07:00 -4°C° 0 mm 4 m/S 753 mmHg 91%
    08:00 -4°C° 0 mm 4 m/S 752 mmHg 90%
    09:00 -3°C° 0.1 mm 4 m/S 752 mmHg 90%
    10:00 -2°C° 0.1 mm 4 m/S 751 mmHg 90%
    11:00 -1°C° 0.1 mm 4 m/S 751 mmHg 90%
    12:00 -1°C° 0.1 mm 4 m/S 751 mmHg 89%
    13:00 -1°C° 0.1 mm 4 m/S 750 mmHg 88%
    14:00 0°C° 0.1 mm 4 m/S 750 mmHg 87%
    15:00 -1°C° 0 mm 4 m/S 750 mmHg 87%
    16:00 -2°C° 0 mm 4 m/S 750 mmHg 86%
    17:00 -2°C° 0 mm 3 m/S 749 mmHg 86%
    18:00 -4°C° 0 mm 3 m/S 750 mmHg 88%
    19:00 -4°C° 0 mm 3 m/S 750 mmHg 89%
    20:00 -5°C° 0 mm 3 m/S 750 mmHg 91%
    21:00 -5°C° 0 mm 3 m/S 750 mmHg 92%
    22:00 -4°C° 0 mm 2 m/S 750 mmHg 93%
    23:00 -5°C° 0 mm 2 m/S 750 mmHg 94%
    Mehr zeigen